(344246) = 2001 SN159

Discovered at Socorro on 2001-09-17 by LINEAR.

Orbit

Orbit type: Main Belt

Note: WebGL enabled browser required.

epoch2023-09-13.0
epoch JD2460200.5
perihelion date2020-04-08.20154
perihelion JD2458947.70154
argument of perihelion (°)186.14358
ascending node (°)213.98018
inclination (°)5.09171
eccentricity0.1227222
perihelion distance (AU)2.0830630
Tisserand w.r.t. Jupiter3.5
ΔV w.r.t. Earth (km/sec)9.1
semimajor axis (AU)2.3744621
mean anomaly (°)337.47158
mean daily motion (°/day)0.26937420
aphelion distance (AU)2.666
period (years)3.66
P-vector [x]0.76489016
P-vector [y]0.59471978
P-vector [z]0.24749026
Q-vector [x]-0.64224808
Q-vector [y]0.73367151
Q-vector [z]0.22190883
absolute magnitude17.42
phase slope0.15
uncertainty0
referenceMPEC 2024-A158
observations used271
oppositions12
arc length (days)8153
first opposition used2001
last opposition used2024
residual rms (arc-secs)0.69
perturbers coarse indicatorM-v
perturbers precise indicator003Ek
first observation date used2001-09-17.0
last observation date used2024-01-13.0
computer nameMPCLINUX
JD of orbit computation2456760.821973
perihelion JD uncertainty (days)1.5522E-04
argument of perihelion uncertainty (°)7.6993E-05
ascending node uncertainty (°)6.1724E-05
inclination uncertainty (°)1.2540E-05
eccentricity uncertainty 1.1597E-07
perihelion distance uncertainty (AU)2.7393E-07
Minimum Orbit Intersection Distances (in AU)
for orbit epoch: 2460200.5, reference: E2024-AF8
Mercury1.75886
Venus1.35998
Earth1.08998
Mars0.60299
Jupiter2.71524
Saturn6.83074
Uranus15.8883
Neptune27.7471

Observations

273 total observations over interval: 2001 09 17.35244 – 2024 01 13.107476
These data are available for download (format description).

Date (UT) J2000 RA J2000 Dec Magn Location Ref
2001 09 17.35244 01 02 12.37 +11 10 22.8 19.5   704 – Lincoln Laboratory ETS, New Mexico MPS 36696
2001 09 17.36652 01 02 11.84 +11 10 16.5 20.3   704 – Lincoln Laboratory ETS, New Mexico MPS 36696
2001 09 17.38036 01 02 11.24 +11 10 12.2 20.0   704 – Lincoln Laboratory ETS, New Mexico MPS 36696
2001 09 20.34130 01 00 19.97 +10 52 23.7 19.5   704 – Lincoln Laboratory ETS, New Mexico MPS 36696
2001 09 20.35550 01 00 19.33 +10 52 18.6 19.3   704 – Lincoln Laboratory ETS, New Mexico MPS 36696
2001 09 20.36969 01 00 18.69 +10 52 12.9 19.6   704 – Lincoln Laboratory ETS, New Mexico MPS 36696
2001 09 20.38388 01 00 18.14 +10 52 07.3 19.5   704 – Lincoln Laboratory ETS, New Mexico MPS 36696
2001 09 21.30138 00 59 41.58 +10 46 12.9 19.9 V 333 – Desert Eagle Observatory MPS 38241
2001 09 21.31612 00 59 40.96 +10 46 07.4 20.2 V 333 – Desert Eagle Observatory MPS 38241
2001 09 21.33116 00 59 40.29 +10 46 01.5 20.3 V 333 – Desert Eagle Observatory MPS 38241
2001 10 11.25533 00 43 53.85 +08 06 11.6 19.8 V 691 – Steward Observatory, Kitt Peak-Spacewatch MPS 38241
2001 10 11.29467 00 43 51.80 +08 05 50.8 19.7 V 691 – Steward Observatory, Kitt Peak-Spacewatch MPS 38241
2001 10 11.32293 00 43 50.34 +08 05 35.7 19.8 V 691 – Steward Observatory, Kitt Peak-Spacewatch MPS 38241
2001 10 11.36494 00 43 48.18 +08 05 12.6 20.0   644 – Palomar Mountain/NEAT MPS 38241
2001 10 11.38624 00 43 47.06 +08 05 01.2 20.0   644 – Palomar Mountain/NEAT MPS 38241
2001 10 11.40742 00 43 45.98 +08 04 49.9 19.9   644 – Palomar Mountain/NEAT MPS 38241
2001 10 14.17954 00 41 32.40 +07 40 14.1 19.7   704 – Lincoln Laboratory ETS, New Mexico MPS 38241
2001 10 14.22676 00 41 30.11 +07 39 48.9 20.3   704 – Lincoln Laboratory ETS, New Mexico MPS 38241
2001 10 14.24253 00 41 29.27 +07 39 40.7 20.3   704 – Lincoln Laboratory ETS, New Mexico MPS 38241
2001 10 15.23957 00 40 42.29 +07 30 52.5 19.9   704 – Lincoln Laboratory ETS, New Mexico MPS 38241
2001 10 15.25580 00 40 41.47 +07 30 43.6 20.2   704 – Lincoln Laboratory ETS, New Mexico MPS 38241
2001 10 15.30367 00 40 39.13 +07 30 18.3 20.1   704 – Lincoln Laboratory ETS, New Mexico MPS 38241
2001 10 18.23181 00 38 25.92 +07 04 39.8 19.9   644 – Palomar Mountain/NEAT MPS 40588
2001 10 18.25292 00 38 24.93 +07 04 28.8 19.9   644 – Palomar Mountain/NEAT MPS 40588
2001 10 18.27321 00 38 23.98 +07 04 18.4 19.6   644 – Palomar Mountain/NEAT MPS 40588
2001 10 20.27833 00 36 57.29 +06 47 06.4 20.1 V 691 – Steward Observatory, Kitt Peak-Spacewatch MPS 40588
2001 10 20.30083 00 36 56.29 +06 46 54.8 20.1 V 691 – Steward Observatory, Kitt Peak-Spacewatch MPS 40588
2001 10 20.32248 00 36 55.31 +06 46 43.6 20.1 V 691 – Steward Observatory, Kitt Peak-Spacewatch MPS 40588
2001 10 21.10867 00 36 23.20 +06 40 04.7 21.0 V 691 – Steward Observatory, Kitt Peak-Spacewatch MPS 40588
2001 10 21.12949 00 36 22.29 +06 39 54.5 20.2 V 691 – Steward Observatory, Kitt Peak-Spacewatch MPS 40588
2001 10 21.15023 00 36 21.41 +06 39 44.2 20.3 V 691 – Steward Observatory, Kitt Peak-Spacewatch MPS 40588
2001 10 21.17191 00 36 20.38 +06 39 32.9 19.7   704 – Lincoln Laboratory ETS, New Mexico MPS 40588
2001 10 21.18827 00 36 19.69 +06 39 24.6 19.7   704 – Lincoln Laboratory ETS, New Mexico MPS 40588
2001 10 21.22103 00 36 18.28 +06 39 07.9 20.0   704 – Lincoln Laboratory ETS, New Mexico MPS 40588
2001 10 21.23740 00 36 17.57 +06 38 59.6 19.4   704 – Lincoln Laboratory ETS, New Mexico MPS 40588
2007 03 14.40405 14 02 52.94 -14 29 56.1 22.2 V G96 – Mt. Lemmon Survey MPS 399938
2007 03 14.41252 14 02 52.72 -14 29 54.4 21.6 V G96 – Mt. Lemmon Survey MPS 399938
2007 03 14.42091 14 02 52.51 -14 29 52.7 21.3 V G96 – Mt. Lemmon Survey MPS 399938
2007 03 14.42927 14 02 52.29 -14 29 51.1 21.2 V G96 – Mt. Lemmon Survey MPS 399938
2008 09 29.14050 20 54 00.72 -10 33 19.8 21.5 V G96 – Mt. Lemmon Survey MPS 468630
2008 09 29.14649 20 54 00.75 -10 33 21.0 21.4 V G96 – Mt. Lemmon Survey MPS 468630
2008 09 29.15293 20 54 00.79 -10 33 22.7 21.3 V G96 – Mt. Lemmon Survey MPS 468630
2008 09 29.15904 20 54 00.82 -10 33 24.0 20.6 V G96 – Mt. Lemmon Survey MPS 468630
2010 01 12.28227 09 08 31.77 +07 36 14.9   691 – Steward Observatory, Kitt Peak-Spacewatch MPS 399938
2010 01 12.29992 09 08 30.86 +07 36 17.0   691 – Steward Observatory, Kitt Peak-Spacewatch MPS 399938
2010 01 12.31758 09 08 29.98 +07 36 19.1   691 – Steward Observatory, Kitt Peak-Spacewatch MPS 399938
2011 05 28.29018 15 51 19.80 -16 12 00.8 20.5 V G96 – Mt. Lemmon Survey MPS 399938
2011 05 28.29767 15 51 19.33 -16 11 58.5 20.5 V G96 – Mt. Lemmon Survey MPS 399938
2011 05 28.30513 15 51 18.86 -16 11 56.7 20.6 V G96 – Mt. Lemmon Survey MPS 399938
2011 05 28.31260 15 51 18.43 -16 11 54.3 20.6 V G96 – Mt. Lemmon Survey MPS 399938
2012 09 11.29722 01 24 04.79 +13 00 21.0 20.0 G G45 – Space Surveillance Telescope, Atom Site MPS 1609817
2012 09 11.33403 01 24 03.99 +13 00 13.2 20.3 G G45 – Space Surveillance Telescope, Atom Site MPS 1609817
2012 09 11.39913 01 24 02.56 +12 59 59.9 20.6 G G45 – Space Surveillance Telescope, Atom Site MPS 1609817
2012 09 11.41030 01 24 02.33 +12 59 57.7 20.6 G G45 – Space Surveillance Telescope, Atom Site MPS 1609817
2012 09 21.27098 01 19 31.61 +12 13 37.7 20.1 V 691 – Steward Observatory, Kitt Peak-Spacewatch MPS 431843
2012 09 21.28876 01 19 30.94 +12 13 31.4 20.1 V 691 – Steward Observatory, Kitt Peak-Spacewatch MPS 431843
2012 09 21.30654 01 19 30.19 +12 13 25.0 19.8 V 691 – Steward Observatory, Kitt Peak-Spacewatch MPS 431843
2012 09 25.30857 01 16 58.18 +11 48 25.6 20.2 V 691 – Steward Observatory, Kitt Peak-Spacewatch MPS 433305
2012 09 25.32628 01 16 57.41 +11 48 17.9 20.0 V 691 – Steward Observatory, Kitt Peak-Spacewatch MPS 433305
2012 09 25.34397 01 16 56.64 +11 48 10.9 20.0 V 691 – Steward Observatory, Kitt Peak-Spacewatch MPS 433305
2012 09 26.388640 01 16 13.879 +11 41 08.44 19.4 i F51 – Pan-STARRS 1, Haleakala MPS 433305
2012 09 26.400918 01 16 13.322 +11 41 03.48 19.5 i F51 – Pan-STARRS 1, Haleakala MPS 433305
2012 10 07.01198 01 07 59.94 +10 19 05.0 20.1   J43 – Oukaimeden Observatory, Marrakech MPS 434081
2012 10 07.02518 01 07 59.28 +10 18 58.7 19.8   J43 – Oukaimeden Observatory, Marrakech MPS 434081
2012 10 07.03841 01 07 58.55 +10 18 51.6 20.1   J43 – Oukaimeden Observatory, Marrakech MPS 434081
2012 10 07.05162 01 07 57.90 +10 18 45.3 19.9   J43 – Oukaimeden Observatory, Marrakech MPS 434081
2012 10 09.24279 01 06 08.42 +10 00 03.1 19.0 V G96 – Mt. Lemmon Survey MPS 434955
2012 10 09.25145 01 06 07.95 +09 59 58.9 19.2 V G96 – Mt. Lemmon Survey MPS 434955
2012 10 09.25999 01 06 07.48 +09 59 54.6 19.0 V G96 – Mt. Lemmon Survey MPS 434955
2012 10 09.26857 01 06 07.05 +09 59 50.6 19.1 V G96 – Mt. Lemmon Survey MPS 434955
2012 10 09.353299 01 06 02.913 +09 59 07.88 19.4 w F51 – Pan-STARRS 1, Haleakala MPS 434955
2012 10 09.381650 01 06 01.404 +09 58 53.29 19.4 w F51 – Pan-STARRS 1, Haleakala MPS 434955
2012 10 09.395956 01 06 00.641 +09 58 45.92 19.2 w F51 – Pan-STARRS 1, Haleakala MPS 434955
2012 10 10.22423 01 05 18.99 +09 51 34.4 19.2 V 703 – Catalina Sky Survey MPS 434955
2012 10 10.23030 01 05 18.67 +09 51 30.4 19.1 V 703 – Catalina Sky Survey MPS 434955
2012 10 10.23792 01 05 18.27 +09 51 26.5 19.2 V 703 – Catalina Sky Survey MPS 434955
2012 10 10.24410 01 05 17.91 +09 51 23.6 19.3 V 703 – Catalina Sky Survey MPS 434955
2012 10 11.471180 01 04 15.795 +09 40 42.64 19.8 g F51 – Pan-STARRS 1, Haleakala MPS 434955
2012 10 11.483858 01 04 15.122 +09 40 35.88 19.8 g F51 – Pan-STARRS 1, Haleakala MPS 434955
2012 10 15.21962 01 01 08.24 +09 07 38.3 19.4   704 – Lincoln Laboratory ETS, New Mexico MPS 434955
2012 10 15.23335 01 01 07.57 +09 07 29.7 19.3   704 – Lincoln Laboratory ETS, New Mexico MPS 434955
2012 10 15.24705 01 01 06.83 +09 07 23.1 19.4   704 – Lincoln Laboratory ETS, New Mexico MPS 434955
2012 10 15.26078 01 01 06.03 +09 07 15.3 19.5   704 – Lincoln Laboratory ETS, New Mexico MPS 434955
2012 10 21.22870 00 56 20.79 +08 14 45.7 19.5 V G96 – Mt. Lemmon Survey MPS 437840
2012 10 21.23723 00 56 20.36 +08 14 41.3 19.6 V G96 – Mt. Lemmon Survey MPS 437840
2012 10 21.24574 00 56 19.96 +08 14 36.9 19.6 V G96 – Mt. Lemmon Survey MPS 437840
